Location: Sevilla
(37.3933°N, 5.9839°W)
Time: 05:03:37
(UTC+02:00)

Transit 2A - Pass Details

Date: 29 June 2024
Orbit: 591 x 960 km, 66.7° (Epoch: 15 July)

Event Time Altitude Azimuth Distance (km) Brightness Sun altitude
Rises 16:34:31 0° 241° (WSW) 3,043 9.6 59.3°
Reaches altitude 10° 16:37:05 10° 254° (WSW) 2,190 9.1 58.9°
Maximum altitude 16:41:15 26° 310° (NW) 1,484 8.2 58.1°
Drops below altitude 10° 16:45:46 10° 6° (N) 2,408 8.6 57.2°
Sets 16:48:46 0° 19° (NNE) 3,413 9.2 56.6°
